Weather in Garlock

United States     35°25′07″N   117°51′03″W
temp.,
°C
wind,
m/s
gust,
m/s
humid.,
%
clouds,
%
prec.,
mm/h
press.,
hPa
HPBL,
m
16 may, sun
sun1623:00+15ssw710480 0.0 1006241
02:00+12ssw46660 0.0 1008173
05:00+10s33740 0.0 100958
08:00+13ssw33575 0.0 1010419
11:00+20ssw023494 0.0 10081412
14:00+23sse232220 0.0 10062727
17:00+20wnw89354 0.0 1006627
20:00+18wnw333835 0.0 1007116
17 may, mon
mon1723:00+16wsw45473 0.0 1009108
02:00+14ssw33583 0.0 101055
05:00+12ssw22660 0.0 101132
08:00+16sw22520 0.0 1012342
11:00+23sw23320 0.0 10111294
14:00+27sw452221 0.0 10082940
17:00+27w86231 0.0 10072143
20:00+23w583249 0.0 1007329
18 may, tue
tue1823:00+20wsw233692 0.0 1009100
02:00+18wsw33436 0.0 101038
05:00+16wsw33460 0.0 101027
08:00+20wsw33330 0.0 1011320
11:00+27wsw33200 0.0 10101085
14:00+31sw43110 0.0 10062856
17:00+30w96120 0.0 10051408
20:00+23wsw34180 0.0 1006116
19 may, wed
wed1923:00+19sw33224 0.0 100729
02:00+17sw44260 0.0 100748
05:00+15sw442972 0.0 100744
08:00+17ssw452689 0.0 1008367
11:00+25w781366 0.0 10051125
14:00+28w12121051 0.0 10031429
17:00+25wsw1215120 0.0 10031498
20:00+20sw913160 0.0 1004592
20 may, thu
thu2023:00+16sw711230 0.0 1006243
02:00+14sw610295 0.0 1006177
05:00+10sw69400 0.0 1006187
08:00+13sw79320 0.0 1007460
11:00+20sw910120 0.0 10051179
14:00+21wsw121470 0.0 10031520
17:00+17w1618100 0.0 10041628
20:00+13wsw1117170 0.0 10061270